Miscellaneous Local Product
Issued by NWS Hastings, NE

Home | Current Version | Previous Version | Text Only | Print | Product List | Glossary Off
Versions: 1 2 3 4 5 6 7 8 9 10 11 12 13 14 15 16 17 18 19 20 21 22 23 24 25 26 27 28 29 30 31 32 33 34 35 36 37 38 39 40 41 42 43 44 45 46 47 48 49 50

000
AXUS43 KGID 031302
MISGRI

GID CWA HOURLY WEATHER ROUNDUP
NATIONAL WEATHER SERVICE HASTINGS NE
800 AM CDT MON AUG 03 2015

NOTE: "FAIR" INDICATES FEW OR NO CLOUDS BELOW 12,000 FEET WITH NO
SIGNIFICANT WEATHER AND/OR OBSTRUCTIONS TO VISIBILITY.

...SOUTH CENTRAL NEBRASKA...

CITY           SKY/WX    TMP DP  RH WIND       PRES   REMARKS
GRAND ISLAND   PTSUNNY   66  63  90 NE8       29.99R
HASTINGS       MOSUNNY   67  65  93 E7        29.98R
KEARNEY        MOSUNNY   64  61  88 NE8       29.99R
ORD            PTSUNNY   64  61  90 E3        30.04R
YORK           MOSUNNY   66  63  88 NE9       29.98R
AURORA         PTSUNNY   67  64  91 NE8       29.98R
LEXINGTON      MOSUNNY   66  64  92 E5        30.00R
HOLDREGE       SUNNY     65  63  92 NE5       29.99R
HEBRON         CLOUDY    70  67  90 NE7       29.94R FOG

...NEBRASKA PANHANDLE...

CITY           SKY/WX    TMP DP  RH WIND       PRES   REMARKS
CHADRON        PTSUNNY   60  56  86 W3        30.02R
ALLIANCE       PTSUNNY   61  58  90 E3        30.03R
SCOTTSBLUFF    PTSUNNY   62  56  80 N5        30.03R
SIDNEY         MOSUNNY   63  56  78 NE5       30.05R

...WESTERN AND NORTH CENTRAL NEBRASKA...

CITY           SKY/WX    TMP DP  RH WIND       PRES   REMARKS
VALENTINE      NOT AVBL
AINSWORTH      MOSUNNY   64  61  91 CALM      30.04R
ONEILL         LGT RAIN  64  62  93 SE8       30.01F
BROKEN BOW     PTSUNNY   67  61  81 E7        30.04R
IMPERIAL       MOSUNNY   65  56  72 SE7       30.01R
NORTH PLATTE   MOSUNNY   63  60  90 E3        30.02R
MCCOOK         MOSUNNY   64  59  83 NE5       29.99R

...EASTERN NEBRASKA...

CITY           SKY/WX    TMP DP  RH WIND       PRES   REMARKS
NORFOLK        PTSUNNY   68  61  78 CALM      30.00S
TEKAMAH        MOSUNNY   67  64  90 N3        29.96R
COLUMBUS       PTSUNNY   64  55  72 NE6       30.00R
ALBION         PTSUNNY   65  58  78 N6        30.05R
OMAHA EPPLEY   PTSUNNY   69  64  84 N5        29.95S
MILLARD        MOSUNNY   71  61  70 CALM      29.94S
LINCOLN        SUNNY     71  63  75 NE8       29.95S
NEBRASKA CITY  CLOUDY    70  61  73 E7        29.95R
BEATRICE       CLOUDY    70  67  90 NE8       29.94R
FALLS CITY     PTSUNNY   72  66  81 E9        29.93R

...NORTHERN KANSAS...

CITY           SKY/WX    TMP DP  RH WIND       PRES   REMARKS
GOODLAND       MOSUNNY   64  60  87 CALM      30.03R
HILL CITY      SUNNY     69  63  81 CALM      29.97R
NORTON         SUNNY     66  59  77 NE5       29.97R
PHILLIPSBURG   SUNNY     72  64  78 E5        29.96R HAZE
SMITH CENTER   SUNNY     72  66  83 NE12      29.95R
HAYS           SUNNY     72  63  73 NE6       29.95R
RUSSELL        MOSUNNY   71  68  90 CALM      29.94R
CONCORDIA      SUNNY     72  66  81 NW3       29.93R
SALINA         SUNNY     74  68  81 NW3       29.93R
TOPEKA         SUNNY     76  69  79 CALM      29.92R



USA.gov is the U.S. government's official web portal to all federal, state and local government web resources and services.